STARLINK-11326, 62010

Orbit data source: Space-Track

STARLINK-11326, 62010 is a payload satellite owned by SpaceX/Seattle (US) in LEO that was launched on Mon, 18 Nov 2024 UTC via an FALCON 9 launch vehicle from the Air Force Western Test Range (AFWTR). Payloads include a variety of satellites, spacecraft, and rockets equipped with specific instruments for various scientific and technological missions. These include communications satellites like Starlink; space stations such as the ISS; scientific satellites like the Hubble; Earth observation satellites from companies like Planet Labs, Umbra, and HawkEye 360; GPS; miniature CubeSats for education and research; and military/defense satellites.

Loading next visibility...
STARLINK-11326 details
Identifier
62010, 2024-213C
Orbit
LEO
Last TLE update7 hours ago
Origin
Flag of USSpaceX/Seattle (US)
ManufacturerSpaceX/Seattle
MissionOperational spacecraft
Bus & MotorSTARLINK V2M, Unknown motor
Mass730 kg wet, ~700 kg dry
Launch date (UTC)
2024-11-18 (1 month ago)
Launch vehicle
FALCON 9
Launch site
Air Force Western Test Range (AFWTR)
Object type
Payload
Rocket body
Debris
Shape & HBRUnknown
Radar Cross SectionLarge (>1 m²)

Expand to show TLE details & history

TLE from 7 hours ago
0 STARLINK-11326
1 62010U 24213C   24361.13487075  .00052401  00000-0  32215-3 0  9990
2 62010  53.1559  45.5031 0001883 119.0503 241.0707 15.76730698  7006
Epoch: 2024-12-26T03:14Z
Definitive object data (Epoch: 2024-12-26T03:14:12.832Z)
Latitude-0.00001°
Longitude-98.169°
Altitude341.24 km
Speed7.705 km/s
True Right ascension03h 02m 00s
True Declination0° 00' 00"
Sunlit
Object was in full shadow at TLE epoch
Visualization TLE readout
Latitude-27.90748°
Longitude-122.95978°
Altitude349.114 km
Speed7.699 km/s
Apparent Right ascension23h 53m 09s
Apparent Declination-36° 11' 52"
Sunlit
Object is in daylight
Visualization observer readout
Local Sidereal Time10:02:46
Azimuth270.912° WNW
Elevation-68.046°
Doppler factor1
Orbital elements
Apogee altitude341.238 km
Perigee altitude338.708 km
Semi-major axis6,718.11 km
Eccentricity0.0001883
Inclination53.1559°
RAAN45.5031°
Arg. of periapsis119.0503°
True anomaly241.05182°
Mean anomaly241.0707°
Eccentric anomaly241.06126°
Mean motion3.9416 °/min
BSTAR0.00032215
Orbital period91.33 mins
Loading maneuver chart data...
Loading historical data...
Loading historical data...
Loading historical data...
Loading historical data...
Loading historical data...
Loading historical data...
Loading historical data...

STARLINK-11326 Visibility forecast

Observer location: undefined°, undefined

Span
Click to sort rows by Start time (UTC) header in descending order
Start Az.
Max El. time (UTC)
Max El. Az.
Max El.
End time (UTC)
End Az.
4 mins2024-12-26 12:52:33.142Z314.893° NW2024-12-26 12:53:33.142Z333.076° NNW42.937°2024-12-26 12:56:33.142Z127.831° SE
|